Year,Month,Day,Hour,Minute,Value (Times are PST for temperature in C)
2016,10,22,00,00,11.40
2016,10,22,00,01,11.40
2016,10,22,00,02,11.50
2016,10,22,00,03,11.60
2016,10,22,00,04,11.50
2016,10,22,00,05,11.60
2016,10,22,00,06,11.60
2016,10,22,00,07,11.80
2016,10,22,00,08,11.60
2016,10,22,00,09,11.60
2016,10,22,00,10,11.70
2016,10,22,00,11,11.70
2016,10,22,00,12,11.70
2016,10,22,00,13,11.60
2016,10,22,00,14,11.70
2016,10,22,00,15,11.70
2016,10,22,00,16,11.60
2016,10,22,00,17,11.70
2016,10,22,00,18,11.70
2016,10,22,00,19,11.70
2016,10,22,00,20,11.70
2016,10,22,00,21,11.70
2016,10,22,00,22,11.80
2016,10,22,00,23,11.70
2016,10,22,00,24,11.70
2016,10,22,00,25,11.70
2016,10,22,00,26,11.70
2016,10,22,00,27,11.90
2016,10,22,00,28,11.80
2016,10,22,00,29,11.80
2016,10,22,00,30,11.70
2016,10,22,00,31,11.70
2016,10,22,00,32,11.80
2016,10,22,00,33,11.70
2016,10,22,00,34,11.70
2016,10,22,00,35,11.70
2016,10,22,00,36,11.70
2016,10,22,00,37,11.70
2016,10,22,00,38,11.60
2016,10,22,00,39,11.60
2016,10,22,00,40,11.60
2016,10,22,00,41,11.60
2016,10,22,00,42,11.60
2016,10,22,00,43,11.60
2016,10,22,00,44,11.50
2016,10,22,00,45,11.60
2016,10,22,00,46,11.40
2016,10,22,00,47,11.50
2016,10,22,00,48,11.30
2016,10,22,00,49,11.30
2016,10,22,00,50,11.30
2016,10,22,00,51,11.20
2016,10,22,00,52,11.30
2016,10,22,00,53,11.10
2016,10,22,00,54,11.10
2016,10,22,00,55,11.20
2016,10,22,00,56,11.10
2016,10,22,00,57,11.20
2016,10,22,00,58,11.20
2016,10,22,00,59,11.20
2016,10,22,01,00,11.10
2016,10,22,01,01,11.00
2016,10,22,01,02,11.10
2016,10,22,01,03,11.00
2016,10,22,01,04,11.00
2016,10,22,01,05,11.00
2016,10,22,01,06,11.00
2016,10,22,01,07,11.00
2016,10,22,01,08,11.00
2016,10,22,01,09,11.00
2016,10,22,01,10,11.10
2016,10,22,01,11,11.00
2016,10,22,01,12,11.10
2016,10,22,01,13,11.10
2016,10,22,01,14,11.00
2016,10,22,01,15,11.10
2016,10,22,01,16,11.00
2016,10,22,01,17,11.00
2016,10,22,01,18,11.00
2016,10,22,01,19,11.00
2016,10,22,01,20,11.00
2016,10,22,01,21,11.00
2016,10,22,01,22,11.00
2016,10,22,01,23,11.00
2016,10,22,01,24,11.00
2016,10,22,01,25,11.00
2016,10,22,01,26,10.90
2016,10,22,01,27,11.10
2016,10,22,01,28,11.10
2016,10,22,01,29,11.20
2016,10,22,01,30,11.20
2016,10,22,01,31,11.20
2016,10,22,01,32,11.20
2016,10,22,01,33,11.10
2016,10,22,01,34,11.20
2016,10,22,01,35,11.00
2016,10,22,01,36,10.90
2016,10,22,01,37,11.20
2016,10,22,01,38,11.20
2016,10,22,01,39,11.00
2016,10,22,01,40,10.90
2016,10,22,01,41,10.80
2016,10,22,01,42,10.80
2016,10,22,01,43,10.90
2016,10,22,01,44,10.80
2016,10,22,01,45,10.80
2016,10,22,01,46,10.70
2016,10,22,01,47,10.70
2016,10,22,01,48,10.60
2016,10,22,01,49,10.60
2016,10,22,01,50,10.60
2016,10,22,01,51,10.60
2016,10,22,01,52,10.60
2016,10,22,01,53,10.60
2016,10,22,01,54,10.50
2016,10,22,01,55,10.50
2016,10,22,01,56,10.50
2016,10,22,01,57,10.50
2016,10,22,01,58,10.40
2016,10,22,01,59,10.40
2016,10,22,02,00,10.40
2016,10,22,02,01,10.50
2016,10,22,02,02,10.40
2016,10,22,02,03,10.40
2016,10,22,02,04,10.40
2016,10,22,02,05,10.40
2016,10,22,02,06,10.40
2016,10,22,02,07,10.50
2016,10,22,02,08,10.50
2016,10,22,02,09,10.40
2016,10,22,02,10,10.40
2016,10,22,02,11,10.70
2016,10,22,02,12,10.60
2016,10,22,02,13,10.30
2016,10,22,02,14,10.70
2016,10,22,02,15,10.10
2016,10,22,02,16,10.10
2016,10,22,02,17,10.10
2016,10,22,02,18,10.00
2016,10,22,02,19,10.10
2016,10,22,02,20,10.00
2016,10,22,02,21,10.10
2016,10,22,02,22,10.10
2016,10,22,02,23,10.10
2016,10,22,02,24,10.10
2016,10,22,02,25,10.10
2016,10,22,02,26,10.20
2016,10,22,02,27,10.00
2016,10,22,02,28,10.00
2016,10,22,02,29,10.00
2016,10,22,02,30,10.00
2016,10,22,02,31,10.00
2016,10,22,02,32,10.00
2016,10,22,02,33,10.00
2016,10,22,02,34,10.10
2016,10,22,02,35,10.10
2016,10,22,02,36,10.10
2016,10,22,02,37,10.10
2016,10,22,02,38,10.10
2016,10,22,02,39,10.10
2016,10,22,02,40,10.10
2016,10,22,02,41,10.30
2016,10,22,02,42,10.10
2016,10,22,02,43,10.40
2016,10,22,02,44,10.20
2016,10,22,02,45,10.10
2016,10,22,02,46,10.00
2016,10,22,02,47,9.90
2016,10,22,02,48,9.90
2016,10,22,02,49,9.90
2016,10,22,02,50,9.80
2016,10,22,02,51,9.80
2016,10,22,02,52,9.80
2016,10,22,02,53,9.80
2016,10,22,02,54,9.80
2016,10,22,02,55,9.90
2016,10,22,02,56,9.80
2016,10,22,02,57,9.80
2016,10,22,02,58,9.80
2016,10,22,02,59,9.90
2016,10,22,03,00,10.10
2016,10,22,03,01,10.20
2016,10,22,03,02,10.30
2016,10,22,03,03,10.30
2016,10,22,03,04,10.30
2016,10,22,03,05,10.40
2016,10,22,03,06,10.50
2016,10,22,03,07,10.60
2016,10,22,03,08,10.60
2016,10,22,03,09,10.50
2016,10,22,03,10,10.40
2016,10,22,03,11,10.40
2016,10,22,03,12,10.50
2016,10,22,03,13,10.60
2016,10,22,03,14,10.60
2016,10,22,03,15,10.70
2016,10,22,03,16,10.90
2016,10,22,03,17,11.30
2016,10,22,03,18,10.90
2016,10,22,03,19,11.00
2016,10,22,03,20,10.90
2016,10,22,03,21,11.00
2016,10,22,03,22,10.90
2016,10,22,03,23,10.90
2016,10,22,03,24,10.90
2016,10,22,03,25,10.90
2016,10,22,03,26,10.80
2016,10,22,03,27,10.90
2016,10,22,03,28,10.70
2016,10,22,03,29,10.70
2016,10,22,03,30,10.60
2016,10,22,03,31,11.00
2016,10,22,03,32,10.60
2016,10,22,03,33,10.60
2016,10,22,03,34,10.70
2016,10,22,03,35,11.20
2016,10,22,03,36,11.40
2016,10,22,03,37,11.40
2016,10,22,03,38,11.50
2016,10,22,03,39,11.60
2016,10,22,03,40,11.40
2016,10,22,03,41,11.60
2016,10,22,03,42,11.40
2016,10,22,03,43,11.40
2016,10,22,03,44,11.20
2016,10,22,03,45,11.30
2016,10,22,03,46,11.20
2016,10,22,03,47,11.50
2016,10,22,03,48,12.00
2016,10,22,03,49,11.70
2016,10,22,03,50,11.80
2016,10,22,03,51,11.30
2016,10,22,03,52,11.20
2016,10,22,03,53,11.20
2016,10,22,03,54,11.20
2016,10,22,03,55,11.70
2016,10,22,03,56,11.30
2016,10,22,03,57,11.30
2016,10,22,03,58,11.30
2016,10,22,03,59,11.40
2016,10,22,04,00,11.40
2016,10,22,04,01,11.20
2016,10,22,04,02,11.30
2016,10,22,04,03,11.50
2016,10,22,04,04,11.50
2016,10,22,04,05,11.50
2016,10,22,04,06,11.50
2016,10,22,04,07,11.60
2016,10,22,04,08,11.90
2016,10,22,04,09,11.70
2016,10,22,04,10,11.70
2016,10,22,04,11,12.30
2016,10,22,04,12,11.70
2016,10,22,04,13,11.60
2016,10,22,04,14,11.60
2016,10,22,04,15,11.80
2016,10,22,04,16,11.80
2016,10,22,04,17,11.80
2016,10,22,04,18,11.70
2016,10,22,04,19,12.10
2016,10,22,04,20,12.40
2016,10,22,04,21,11.60
2016,10,22,04,22,11.70
2016,10,22,04,23,11.80
2016,10,22,04,24,11.60
2016,10,22,04,25,11.50
2016,10,22,04,26,11.60
2016,10,22,04,27,12.30
2016,10,22,04,28,11.50
2016,10,22,04,29,11.40
2016,10,22,04,30,11.70
2016,10,22,04,31,11.30
2016,10,22,04,32,11.40
2016,10,22,04,33,11.30
2016,10,22,04,34,11.40
2016,10,22,04,35,11.40
2016,10,22,04,36,11.30
2016,10,22,04,37,11.40
2016,10,22,04,38,11.50
2016,10,22,04,39,12.20
2016,10,22,04,40,11.40
2016,10,22,04,41,11.70
2016,10,22,04,42,11.30
2016,10,22,04,43,11.20
2016,10,22,04,44,11.50
2016,10,22,04,45,11.40
2016,10,22,04,46,11.20
2016,10,22,04,47,11.00
2016,10,22,04,48,11.10
2016,10,22,04,49,11.30
2016,10,22,04,50,11.90
2016,10,22,04,51,12.30
2016,10,22,04,52,11.20
2016,10,22,04,53,11.00
2016,10,22,04,54,11.20
2016,10,22,04,55,11.20
2016,10,22,04,56,11.60
2016,10,22,04,57,12.50
2016,10,22,04,58,11.80
2016,10,22,04,59,11.00
2016,10,22,05,00,11.10
2016,10,22,05,01,11.70
2016,10,22,05,02,12.50
2016,10,22,05,03,11.70
2016,10,22,05,04,12.30
2016,10,22,05,05,12.50
2016,10,22,05,06,11.20
2016,10,22,05,07,11.30
2016,10,22,05,08,11.40
2016,10,22,05,09,11.70
2016,10,22,05,10,11.70
2016,10,22,05,11,11.70
2016,10,22,05,12,11.60
2016,10,22,05,13,11.70
2016,10,22,05,14,11.80
2016,10,22,05,15,11.80
2016,10,22,05,16,11.70
2016,10,22,05,17,12.00
2016,10,22,05,18,11.60
2016,10,22,05,19,11.60
2016,10,22,05,20,11.80
2016,10,22,05,21,11.70
2016,10,22,05,22,11.80
2016,10,22,05,23,11.90
2016,10,22,05,24,11.90
2016,10,22,05,25,13.30
2016,10,22,05,26,11.90
2016,10,22,05,27,12.60
2016,10,22,05,28,12.70
2016,10,22,05,29,12.00
2016,10,22,05,30,12.00
2016,10,22,05,31,12.10
2016,10,22,05,32,12.20
2016,10,22,05,33,12.20
2016,10,22,05,34,12.30
2016,10,22,05,35,12.60
2016,10,22,05,36,12.20
2016,10,22,05,37,12.40
2016,10,22,05,38,12.30
2016,10,22,05,39,12.50
2016,10,22,05,40,12.30
2016,10,22,05,41,12.30
2016,10,22,05,42,12.70
2016,10,22,05,43,12.30
2016,10,22,05,44,13.00
2016,10,22,05,45,12.30
2016,10,22,05,46,12.20
2016,10,22,05,47,12.10
2016,10,22,05,48,12.30
2016,10,22,05,49,12.50
2016,10,22,05,50,12.20
2016,10,22,05,51,12.30
2016,10,22,05,52,12.20
2016,10,22,05,53,12.40
2016,10,22,05,54,12.10
2016,10,22,05,55,12.40
2016,10,22,05,56,12.30
2016,10,22,05,57,12.60
2016,10,22,05,58,12.40
2016,10,22,05,59,12.30
2016,10,22,06,00,12.40
2016,10,22,06,01,12.40
2016,10,22,06,02,12.40
2016,10,22,06,03,12.50
2016,10,22,06,04,12.60
2016,10,22,06,05,12.40
2016,10,22,06,06,12.30
2016,10,22,06,07,12.50
2016,10,22,06,08,12.70
2016,10,22,06,09,12.70
2016,10,22,06,10,12.40
2016,10,22,06,11,12.30
2016,10,22,06,12,12.60
2016,10,22,06,13,12.30
2016,10,22,06,14,12.60
2016,10,22,06,15,12.80
2016,10,22,06,16,12.70
2016,10,22,06,17,13.50
2016,10,22,06,18,13.10
2016,10,22,06,19,12.80
2016,10,22,06,20,13.10
2016,10,22,06,21,13.00
2016,10,22,06,22,13.00
2016,10,22,06,23,12.80
2016,10,22,06,24,13.10
2016,10,22,06,25,13.00
2016,10,22,06,26,13.40
2016,10,22,06,27,13.00
2016,10,22,06,28,13.40
2016,10,22,06,29,12.80
2016,10,22,06,30,12.90
2016,10,22,06,31,13.10
2016,10,22,06,32,13.60
2016,10,22,06,33,13.40
2016,10,22,06,34,12.90
2016,10,22,06,35,13.10
2016,10,22,06,36,12.90
2016,10,22,06,37,12.90
2016,10,22,06,38,12.80
2016,10,22,06,39,12.90
2016,10,22,06,40,12.70
2016,10,22,06,41,12.80
2016,10,22,06,42,12.90
2016,10,22,06,43,12.60
2016,10,22,06,44,12.80
2016,10,22,06,45,13.00
2016,10,22,06,46,13.30
2016,10,22,06,47,12.70
2016,10,22,06,48,13.00
2016,10,22,06,49,12.80
2016,10,22,06,50,13.50
2016,10,22,06,51,12.80
2016,10,22,06,52,13.10
2016,10,22,06,53,12.70
2016,10,22,06,54,12.70
2016,10,22,06,55,13.10
2016,10,22,06,56,12.90
2016,10,22,06,57,12.70
2016,10,22,06,58,13.00
2016,10,22,06,59,13.40
2016,10,22,07,00,12.90
2016,10,22,07,01,13.30
2016,10,22,07,02,13.00
2016,10,22,07,03,13.10
2016,10,22,07,04,13.10
2016,10,22,07,05,13.30
2016,10,22,07,06,13.00
2016,10,22,07,07,13.70
2016,10,22,07,08,12.90
2016,10,22,07,09,13.00
2016,10,22,07,10,12.90
2016,10,22,07,11,12.80
2016,10,22,07,12,12.90
2016,10,22,07,13,13.40
2016,10,22,07,14,13.40
2016,10,22,07,15,13.70
2016,10,22,07,16,13.40
2016,10,22,07,17,13.30
2016,10,22,07,18,13.50
2016,10,22,07,19,13.40
2016,10,22,07,20,13.30
2016,10,22,07,21,13.50
2016,10,22,07,22,13.20
2016,10,22,07,23,13.20
2016,10,22,07,24,14.50
2016,10,22,07,25,13.90
2016,10,22,07,26,13.50
2016,10,22,07,27,13.20
2016,10,22,07,28,13.80
2016,10,22,07,29,13.90
2016,10,22,07,30,13.60
2016,10,22,07,31,13.10
2016,10,22,07,32,13.40
2016,10,22,07,33,13.30
2016,10,22,07,34,13.20
2016,10,22,07,35,13.40
2016,10,22,07,36,13.20
2016,10,22,07,37,13.80
2016,10,22,07,38,13.10
2016,10,22,07,39,13.40
2016,10,22,07,40,13.20
2016,10,22,07,41,13.40
2016,10,22,07,42,13.90
2016,10,22,07,43,13.30
2016,10,22,07,44,13.40
2016,10,22,07,45,13.30
2016,10,22,07,46,13.30
2016,10,22,07,47,13.20
2016,10,22,07,48,13.30
2016,10,22,07,49,13.10
2016,10,22,07,50,13.20
2016,10,22,07,51,13.20
2016,10,22,07,52,13.30
2016,10,22,07,53,13.30
2016,10,22,07,54,13.20
2016,10,22,07,55,13.40
2016,10,22,07,56,13.50
2016,10,22,07,57,13.40
2016,10,22,07,58,13.60
2016,10,22,07,59,13.60
2016,10,22,08,00,13.50
2016,10,22,08,01,13.90
2016,10,22,08,02,13.30
2016,10,22,08,03,13.60
2016,10,22,08,04,13.50
2016,10,22,08,05,13.50
2016,10,22,08,06,13.50
2016,10,22,08,07,13.40
2016,10,22,08,08,13.50
2016,10,22,08,09,13.60
2016,10,22,08,10,13.50
2016,10,22,08,11,13.40
2016,10,22,08,12,13.60
2016,10,22,08,13,13.60
2016,10,22,08,14,13.60
2016,10,22,08,15,13.60
2016,10,22,08,16,13.80
2016,10,22,08,17,13.50
2016,10,22,08,18,13.60
2016,10,22,08,19,13.60
2016,10,22,08,20,13.60
2016,10,22,08,21,13.50
2016,10,22,08,22,13.40
2016,10,22,08,23,13.50
2016,10,22,08,24,13.50
2016,10,22,08,25,13.60
2016,10,22,08,26,13.30
2016,10,22,08,27,13.40
2016,10,22,08,28,13.30
2016,10,22,08,29,13.30
2016,10,22,08,30,13.30
2016,10,22,08,31,13.20
2016,10,22,08,32,13.30
2016,10,22,08,33,13.30
2016,10,22,08,34,13.40
2016,10,22,08,35,15.00
2016,10,22,08,36,15.20
2016,10,22,08,37,15.30
2016,10,22,08,38,14.40
2016,10,22,08,39,13.70
2016,10,22,08,40,15.40
2016,10,22,08,41,14.60
2016,10,22,08,42,14.80
2016,10,22,08,43,14.10
2016,10,22,08,44,13.40
2016,10,22,08,45,13.30
2016,10,22,08,46,13.40
2016,10,22,08,47,13.40
2016,10,22,08,48,13.50
2016,10,22,08,49,13.50
2016,10,22,08,50,13.40
2016,10,22,08,51,13.40
2016,10,22,08,52,13.50
2016,10,22,08,53,13.40
2016,10,22,08,54,13.40
2016,10,22,08,55,13.50
2016,10,22,08,56,13.50
2016,10,22,08,57,13.40
2016,10,22,08,58,13.90
2016,10,22,08,59,13.40
2016,10,22,09,00,13.40
2016,10,22,09,01,13.30
2016,10,22,09,02,13.30
2016,10,22,09,03,13.30
2016,10,22,09,04,13.50
2016,10,22,09,05,13.60
2016,10,22,09,06,14.00
2016,10,22,09,07,13.50
2016,10,22,09,08,13.40
2016,10,22,09,09,13.60
2016,10,22,09,10,13.50
2016,10,22,09,11,13.30
2016,10,22,09,12,14.00
2016,10,22,09,13,13.50
2016,10,22,09,14,13.30
2016,10,22,09,15,13.50
2016,10,22,09,16,13.60
2016,10,22,09,17,13.60
2016,10,22,09,18,13.50
2016,10,22,09,19,13.50
2016,10,22,09,20,13.40
2016,10,22,09,21,13.40
2016,10,22,09,22,13.50
2016,10,22,09,23,13.50
2016,10,22,09,24,13.60
2016,10,22,09,25,13.40
2016,10,22,09,26,13.50
2016,10,22,09,27,13.50
2016,10,22,09,28,13.50
2016,10,22,09,29,13.80
2016,10,22,09,30,13.50
2016,10,22,09,31,14.00
2016,10,22,09,32,13.60
2016,10,22,09,33,13.60
2016,10,22,09,34,13.60
2016,10,22,09,35,13.50
2016,10,22,09,36,13.80
2016,10,22,09,37,14.40
2016,10,22,09,38,13.70
2016,10,22,09,39,13.90
2016,10,22,09,40,13.70
2016,10,22,09,41,13.80
2016,10,22,09,42,13.90
2016,10,22,09,43,13.90
2016,10,22,09,44,14.00
2016,10,22,09,45,13.90
2016,10,22,09,46,13.80
2016,10,22,09,47,14.10
2016,10,22,09,48,14.50
2016,10,22,09,49,15.20
2016,10,22,09,50,14.10
2016,10,22,09,51,14.50
2016,10,22,09,52,14.40
2016,10,22,09,53,14.70
2016,10,22,09,54,14.30
2016,10,22,09,55,14.10
2016,10,22,09,56,14.20
2016,10,22,09,57,14.10
2016,10,22,09,58,14.20
2016,10,22,09,59,14.20
2016,10,22,10,00,14.20
2016,10,22,10,01,14.10
2016,10,22,10,02,14.10
2016,10,22,10,03,14.20
2016,10,22,10,04,14.20
2016,10,22,10,05,14.10
2016,10,22,10,06,14.20
2016,10,22,10,07,14.20
2016,10,22,10,08,14.10
2016,10,22,10,09,14.20
2016,10,22,10,10,14.20
2016,10,22,10,11,14.20
2016,10,22,10,12,14.20
2016,10,22,10,13,14.10
2016,10,22,10,14,14.00
2016,10,22,10,15,14.70
2016,10,22,10,16,14.10
2016,10,22,10,17,14.20
2016,10,22,10,18,14.20
2016,10,22,10,19,14.30
2016,10,22,10,20,14.20
2016,10,22,10,21,14.40
2016,10,22,10,22,14.80
2016,10,22,10,23,14.60
2016,10,22,10,24,14.60
2016,10,22,10,25,14.40
2016,10,22,10,26,14.40
2016,10,22,10,27,14.40
2016,10,22,10,28,14.80
2016,10,22,10,29,14.80
2016,10,22,10,30,14.80
2016,10,22,10,31,15.00
2016,10,22,10,32,15.40
2016,10,22,10,33,14.20
2016,10,22,10,34,14.30
2016,10,22,10,35,14.20
2016,10,22,10,36,14.20
2016,10,22,10,37,14.30
2016,10,22,10,38,14.30
2016,10,22,10,39,14.50
2016,10,22,10,40,14.30
2016,10,22,10,41,14.50
2016,10,22,10,42,14.30
2016,10,22,10,43,15.30
2016,10,22,10,44,14.50
2016,10,22,10,45,14.10
2016,10,22,10,46,14.20
2016,10,22,10,47,14.10
2016,10,22,10,48,14.50
2016,10,22,10,49,14.10
2016,10,22,10,50,14.10
2016,10,22,10,51,14.00
2016,10,22,10,52,15.10
2016,10,22,10,53,14.30
2016,10,22,10,54,14.10
2016,10,22,10,55,14.10
2016,10,22,10,56,14.10
2016,10,22,10,57,14.20
2016,10,22,10,58,14.80
2016,10,22,10,59,15.00
2016,10,22,11,00,14.70
2016,10,22,11,01,14.60
2016,10,22,11,02,14.80
2016,10,22,11,03,14.40
2016,10,22,11,04,15.00
2016,10,22,11,05,14.90
2016,10,22,11,06,14.50
2016,10,22,11,07,14.30
2016,10,22,11,08,15.20
2016,10,22,11,09,14.60
2016,10,22,11,10,14.30
2016,10,22,11,11,14.60
2016,10,22,11,12,14.60
2016,10,22,11,13,14.70
2016,10,22,11,14,14.30
2016,10,22,11,15,14.30
2016,10,22,11,16,14.30
2016,10,22,11,17,14.30
2016,10,22,11,18,14.20
2016,10,22,11,19,14.20
2016,10,22,11,20,14.40
2016,10,22,11,21,14.30
2016,10,22,11,22,14.30
2016,10,22,11,23,15.00
2016,10,22,11,24,14.20
2016,10,22,11,25,14.20
2016,10,22,11,26,14.20
2016,10,22,11,27,14.30
2016,10,22,11,28,14.50
2016,10,22,11,29,14.00
2016,10,22,11,30,14.00
2016,10,22,11,31,14.00
2016,10,22,11,32,14.10
2016,10,22,11,33,14.30
2016,10,22,11,34,14.20
2016,10,22,11,35,14.20
2016,10,22,11,36,13.90
2016,10,22,11,37,14.00
2016,10,22,11,38,14.30
2016,10,22,11,39,15.00
2016,10,22,11,40,13.90
2016,10,22,11,41,14.80
2016,10,22,11,42,14.10
2016,10,22,11,43,13.80
2016,10,22,11,44,13.90
2016,10,22,11,45,13.80
2016,10,22,11,46,13.60
2016,10,22,11,47,13.50
2016,10,22,11,48,13.50
2016,10,22,11,49,13.60
2016,10,22,11,50,13.60
2016,10,22,11,51,13.60
2016,10,22,11,52,13.90
2016,10,22,11,53,14.50
2016,10,22,11,54,13.60
2016,10,22,11,55,13.80
2016,10,22,11,56,13.70
2016,10,22,11,57,13.70
2016,10,22,11,58,14.20
2016,10,22,11,59,13.70
2016,10,22,12,00,13.70
2016,10,22,12,01,13.90
2016,10,22,12,02,13.90
2016,10,22,12,03,13.80
2016,10,22,12,04,13.60
2016,10,22,12,05,13.70
2016,10,22,12,06,13.90
2016,10,22,12,07,13.60
2016,10,22,12,08,13.50
2016,10,22,12,09,13.70
2016,10,22,12,10,14.00
2016,10,22,12,11,13.80
2016,10,22,12,12,13.60
2016,10,22,12,13,13.50
2016,10,22,12,14,13.50
2016,10,22,12,15,13.50
2016,10,22,12,16,13.50
2016,10,22,12,17,13.50
2016,10,22,12,18,13.60
2016,10,22,12,19,13.50
2016,10,22,12,20,13.50
2016,10,22,12,21,13.40
2016,10,22,12,22,13.40
2016,10,22,12,23,13.40
2016,10,22,12,24,13.30
2016,10,22,12,25,13.30
2016,10,22,12,26,13.30
2016,10,22,12,27,13.40
2016,10,22,12,28,13.30
2016,10,22,12,29,13.40
2016,10,22,12,30,13.30
2016,10,22,12,31,13.30
2016,10,22,12,32,13.30
2016,10,22,12,33,13.30
2016,10,22,12,34,13.30
2016,10,22,12,35,13.30
2016,10,22,12,36,13.20
2016,10,22,12,37,13.30
2016,10,22,12,38,13.20
2016,10,22,12,39,13.20
2016,10,22,12,40,13.20
2016,10,22,12,41,13.20
2016,10,22,12,42,13.20
2016,10,22,12,43,13.10
2016,10,22,12,44,13.20
2016,10,22,12,45,13.30
2016,10,22,12,46,13.40
2016,10,22,12,47,13.50
2016,10,22,12,48,13.40
2016,10,22,12,49,13.40
2016,10,22,12,50,13.50
2016,10,22,12,51,13.50
2016,10,22,12,52,13.50
2016,10,22,12,53,13.50
2016,10,22,12,54,13.30
2016,10,22,12,55,13.20
2016,10,22,12,56,13.20
2016,10,22,12,57,13.20
2016,10,22,12,58,13.30
2016,10,22,12,59,13.30
2016,10,22,13,00,13.30
2016,10,22,13,01,13.40
2016,10,22,13,02,13.20
2016,10,22,13,03,13.30
2016,10,22,13,04,13.40
2016,10,22,13,05,13.20
2016,10,22,13,06,13.20
2016,10,22,13,07,13.30
2016,10,22,13,08,13.20
2016,10,22,13,09,13.20
2016,10,22,13,10,13.30
2016,10,22,13,11,13.20
2016,10,22,13,12,13.20
2016,10,22,13,13,13.20
2016,10,22,13,14,13.30
2016,10,22,13,15,13.30
2016,10,22,13,16,13.40
2016,10,22,13,17,13.30
2016,10,22,13,18,13.40
2016,10,22,13,19,13.40
2016,10,22,13,20,13.30
2016,10,22,13,21,13.30
2016,10,22,13,22,13.30
2016,10,22,13,23,13.30
2016,10,22,13,24,13.30
2016,10,22,13,25,13.20
2016,10,22,13,26,13.30
2016,10,22,13,27,13.30
2016,10,22,13,28,13.30
2016,10,22,13,29,13.20
2016,10,22,13,30,13.20
2016,10,22,13,31,13.20
2016,10,22,13,32,13.20
2016,10,22,13,33,13.20
2016,10,22,13,34,13.20
2016,10,22,13,35,13.30
2016,10,22,13,36,13.20
2016,10,22,13,37,13.20
2016,10,22,13,38,13.30
2016,10,22,13,39,13.20
2016,10,22,13,40,13.30
2016,10,22,13,41,13.20
2016,10,22,13,42,13.20
2016,10,22,13,43,13.20
2016,10,22,13,44,13.20
2016,10,22,13,45,13.20
2016,10,22,13,46,13.20
2016,10,22,13,47,13.30
2016,10,22,13,48,13.20
2016,10,22,13,49,13.20
2016,10,22,13,50,13.20
2016,10,22,13,51,13.20
2016,10,22,13,52,13.20
2016,10,22,13,53,13.20
2016,10,22,13,54,13.20
2016,10,22,13,55,13.20
2016,10,22,13,56,13.20
2016,10,22,13,57,13.20
2016,10,22,13,58,13.40
2016,10,22,13,59,13.20
2016,10,22,14,00,13.20
2016,10,22,14,01,13.10
2016,10,22,14,02,13.10
2016,10,22,14,03,13.10
2016,10,22,14,04,13.00
2016,10,22,14,05,13.10
2016,10,22,14,06,13.00
2016,10,22,14,07,13.00
2016,10,22,14,08,13.00
2016,10,22,14,09,13.00
2016,10,22,14,10,13.00
2016,10,22,14,11,12.90
2016,10,22,14,12,12.90
2016,10,22,14,13,12.90
2016,10,22,14,14,12.90
2016,10,22,14,15,12.90
2016,10,22,14,16,12.80
2016,10,22,14,17,12.90
2016,10,22,14,18,12.80
2016,10,22,14,19,12.80
2016,10,22,14,20,12.70
2016,10,22,14,21,12.70
2016,10,22,14,22,12.70
2016,10,22,14,23,12.70
2016,10,22,14,24,12.70
2016,10,22,14,25,12.70
2016,10,22,14,26,12.70
2016,10,22,14,27,12.70
2016,10,22,14,28,12.80
2016,10,22,14,29,12.80
2016,10,22,14,30,12.80
2016,10,22,14,31,12.80
2016,10,22,14,32,12.80
2016,10,22,14,33,12.80
2016,10,22,14,34,12.80
2016,10,22,14,35,12.80
2016,10,22,14,36,12.80
2016,10,22,14,37,12.90
2016,10,22,14,38,12.90
2016,10,22,14,39,12.90
2016,10,22,14,40,12.90
2016,10,22,14,41,12.90
2016,10,22,14,42,13.00
2016,10,22,14,43,13.00
2016,10,22,14,44,13.00
2016,10,22,14,45,13.00
2016,10,22,14,46,13.10
2016,10,22,14,47,13.10
2016,10,22,14,48,13.10
2016,10,22,14,49,13.10
2016,10,22,14,50,13.10
2016,10,22,14,51,13.10
2016,10,22,14,52,13.10
2016,10,22,14,53,13.10
2016,10,22,14,54,13.10
2016,10,22,14,55,13.10
2016,10,22,14,56,13.10
2016,10,22,14,57,13.10
2016,10,22,14,58,13.20
2016,10,22,14,59,13.20
2016,10,22,15,00,13.20
2016,10,22,15,01,13.20
2016,10,22,15,02,13.10
2016,10,22,15,03,13.10
2016,10,22,15,04,13.10
2016,10,22,15,05,13.10
2016,10,22,15,06,13.10
2016,10,22,15,07,13.10
2016,10,22,15,08,13.00
2016,10,22,15,09,13.00
2016,10,22,15,10,12.90
2016,10,22,15,11,12.90
2016,10,22,15,12,12.90
2016,10,22,15,13,12.90
2016,10,22,15,14,12.90
2016,10,22,15,15,12.90
2016,10,22,15,16,12.80
2016,10,22,15,17,12.80
2016,10,22,15,18,12.80
2016,10,22,15,19,12.80
2016,10,22,15,20,12.80
2016,10,22,15,21,12.80
2016,10,22,15,22,12.80
2016,10,22,15,23,12.80
2016,10,22,15,24,12.80
2016,10,22,15,25,12.80
2016,10,22,15,26,12.80
2016,10,22,15,27,12.80
2016,10,22,15,28,12.90
2016,10,22,15,29,12.90
2016,10,22,15,30,12.90
2016,10,22,15,31,12.90
2016,10,22,15,32,12.90
2016,10,22,15,33,13.00
2016,10,22,15,34,12.90
2016,10,22,15,35,12.90
2016,10,22,15,36,12.90
2016,10,22,15,37,12.90
2016,10,22,15,38,12.90
2016,10,22,15,39,12.80
2016,10,22,15,40,12.80
2016,10,22,15,41,12.80
2016,10,22,15,42,12.80
2016,10,22,15,43,12.80
2016,10,22,15,44,12.80
2016,10,22,15,45,12.80
2016,10,22,15,46,12.80
2016,10,22,15,47,12.80
2016,10,22,15,48,12.80
2016,10,22,15,49,12.80
2016,10,22,15,50,12.80
2016,10,22,15,51,12.80
2016,10,22,15,52,12.80
2016,10,22,15,53,12.80
2016,10,22,15,54,12.80
2016,10,22,15,55,12.80
2016,10,22,15,56,12.80
2016,10,22,15,57,12.80
2016,10,22,15,58,12.80
2016,10,22,15,59,12.80
2016,10,22,16,00,12.80
2016,10,22,16,01,12.80
2016,10,22,16,02,12.80
2016,10,22,16,03,12.80
2016,10,22,16,04,12.80
2016,10,22,16,05,12.80
2016,10,22,16,06,12.80
2016,10,22,16,07,12.80
2016,10,22,16,08,12.80
2016,10,22,16,09,12.80
2016,10,22,16,10,12.80
2016,10,22,16,11,12.80
2016,10,22,16,12,12.80
2016,10,22,16,13,12.80
2016,10,22,16,14,12.90
2016,10,22,16,15,12.90
2016,10,22,16,16,12.90
2016,10,22,16,17,12.90
2016,10,22,16,18,12.90
2016,10,22,16,19,12.90
2016,10,22,16,20,12.90
2016,10,22,16,21,12.90
2016,10,22,16,22,12.90
2016,10,22,16,23,12.90
2016,10,22,16,24,12.90
2016,10,22,16,25,12.90
2016,10,22,16,26,12.90
2016,10,22,16,27,12.90
2016,10,22,16,28,12.90
2016,10,22,16,29,12.80
2016,10,22,16,30,12.80
2016,10,22,16,31,12.80
2016,10,22,16,32,12.90
2016,10,22,16,33,12.80
2016,10,22,16,34,12.90
2016,10,22,16,35,12.90
2016,10,22,16,36,12.90
2016,10,22,16,37,12.80
2016,10,22,16,38,12.90
2016,10,22,16,39,12.90
2016,10,22,16,40,12.90
2016,10,22,16,41,12.90
2016,10,22,16,42,12.90
2016,10,22,16,43,12.90
2016,10,22,16,44,12.80
2016,10,22,16,45,12.90
2016,10,22,16,46,12.90
2016,10,22,16,47,12.90
2016,10,22,16,48,12.90
2016,10,22,16,49,12.80
2016,10,22,16,50,12.80
2016,10,22,16,51,12.80
2016,10,22,16,52,12.80
2016,10,22,16,53,12.90
2016,10,22,16,54,12.80
2016,10,22,16,55,12.80
2016,10,22,16,56,12.90
2016,10,22,16,57,12.90
2016,10,22,16,58,12.80
2016,10,22,16,59,12.80
2016,10,22,17,00,12.80
2016,10,22,17,01,12.80
2016,10,22,17,02,12.80
2016,10,22,17,03,12.80
2016,10,22,17,04,12.80
2016,10,22,17,05,12.80
2016,10,22,17,06,12.80
2016,10,22,17,07,12.80
2016,10,22,17,08,12.80
2016,10,22,17,09,12.80
2016,10,22,17,10,12.80
2016,10,22,17,11,12.80
2016,10,22,17,12,12.80
2016,10,22,17,13,12.80
2016,10,22,17,14,12.70
2016,10,22,17,15,12.70
2016,10,22,17,16,12.70
2016,10,22,17,17,12.70
2016,10,22,17,18,12.70
2016,10,22,17,19,12.70
2016,10,22,17,20,12.70